Location: Arboyeti
(42.1122°N, 44.6017°E)
Time: 20:19:25
(UTC+00:00)

DELTA 2 R/B (1) - Pass Details

Date: 19 April 2021
Orbit: 789 x 804 km, 39.6° (Epoch: 18 May)

Event Time Altitude Azimuth Distance (km) Brightness Sun altitude
Exits shadow 23:31:15 63° 146° (SE) 881 3.6 -26.2°
Drops below altitude 10° 23:36:20 10° 92° (E) 2,355 6.5 -25.6°
Sets 23:38:50 0° 89° (E) 3,288 7.4 -25.2°
